When you browse on this site, cookies collect data to enhance your experience and personalize the content and advertising you see.
Visit our Privacy Policy to learn more. By continuing to use the site, you agree to this use of cookies and data.
  • en France
  • Liste des pays
  • À 7 jours
  • Température de l'eau
  • Carte satellitaire
  • Carte météo
  • Widgets météo
  • user-avatar
    Se connecter

    Météo par heure à Grantham

    Ce jour, 18 Juin, Mardi

    Heure Température Précipitation Vent Pression Humidité
    00:00 +12°C° 0 mm 3 m/s 751 mmHg 93%
    01:00 +11°C° 0 mm 3 m/s 751 mmHg 93%
    02:00 +12°C° 0 mm 2 m/s 751 mmHg 93%
    03:00 +10°C° 0 mm 2 m/s 750 mmHg 93%
    04:00 +12°C° 0 mm 2 m/s 750 mmHg 92%
    05:00 +13°C° 0 mm 2 m/s 750 mmHg 91%
    06:00 +13°C° 0 mm 2 m/s 751 mmHg 90%
    07:00 +15°C° 0 mm 2 m/s 751 mmHg 86%
    08:00 +16°C° 0 mm 2 m/s 751 mmHg 83%
    09:00 +17°C° 0 mm 2 m/s 751 mmHg 79%
    10:00 +17°C° 0 mm 2 m/s 750 mmHg 77%
    11:00 +18°C° 0 mm 2 m/s 750 mmHg 76%
    12:00 +18°C° 0 mm 2 m/s 750 mmHg 74%
    13:00 +18°C° 0.1 mm 2 m/s 750 mmHg 77%
    14:00 +19°C° 0.1 mm 1 m/s 749 mmHg 80%
    15:00 +18°C° 0.1 mm 1 m/s 749 mmHg 83%
    16:00 +18°C° 0.7 mm 1 m/s 749 mmHg 87%
    17:00 +16°C° 0.7 mm 1 m/s 749 mmHg 91%
    18:00 +15°C° 0.7 mm 1 m/s 748 mmHg 94%
    19:00 +14°C° 0.3 mm 1 m/s 748 mmHg 94%
    20:00 +14°C° 0.3 mm 1 m/s 748 mmHg 95%
    21:00 +14°C° 0.3 mm 1 m/s 748 mmHg 95%
    22:00 +14°C° 0 mm 1 m/s 748 mmHg 95%
    23:00 +14°C° 0 mm 1 m/s 748 mmHg 96%

    Demain, 19 Juin, Mercredi

    Heure Température Précipitation Vent Pression Humidité
    00:00 +13°C° 0 mm 1 m/s 748 mmHg 96%
    01:00 +13°C° 0 mm 1 m/s 747 mmHg 96%
    02:00 +13°C° 0 mm 1 m/s 747 mmHg 97%
    03:00 +13°C° 0 mm 2 m/s 746 mmHg 97%
    04:00 +13°C° 0 mm 2 m/s 746 mmHg 97%
    05:00 +13°C° 0 mm 2 m/s 746 mmHg 97%
    06:00 +13°C° 0 mm 2 m/s 746 mmHg 97%
    07:00 +14°C° 0 mm 2 m/s 746 mmHg 96%
    08:00 +13°C° 0 mm 3 m/s 746 mmHg 95%
    09:00 +13°C° 0 mm 3 m/s 746 mmHg 94%
    10:00 +14°C° 0.1 mm 3 m/s 746 mmHg 92%
    11:00 +14°C° 0.1 mm 3 m/s 746 mmHg 90%
    12:00 +14°C° 0.1 mm 3 m/s 746 mmHg 89%
    13:00 +16°C° 0.1 mm 3 m/s 746 mmHg 86%
    14:00 +16°C° 0.1 mm 2 m/s 746 mmHg 83%
    15:00 +17°C° 0.1 mm 2 m/s 746 mmHg 80%
    16:00 +17°C° 0.2 mm 2 m/s 746 mmHg 81%
    17:00 +16°C° 0.2 mm 2 m/s 746 mmHg 82%
    18:00 +16°C° 0.2 mm 2 m/s 746 mmHg 84%
    19:00 +16°C° 0.1 mm 2 m/s 746 mmHg 85%
    20:00 +15°C° 0.1 mm 2 m/s 746 mmHg 86%
    21:00 +14°C° 0.1 mm 2 m/s 747 mmHg 87%
    22:00 +14°C° 0 mm 2 m/s 747 mmHg 88%
    23:00 +13°C° 0 mm 2 m/s 747 mmHg 88%

    Après-demain, 20 Juin, Jeudi

    Heure Température Précipitation Vent Pression Humidité
    00:00 +13°C° 0 mm 2 m/s 747 mmHg 89%
    01:00 +12°C° 0 mm 2 m/s 747 mmHg 90%
    02:00 +10°C° 0 mm 2 m/s 747 mmHg 91%
    03:00 +9°C° 0 mm 3 m/s 747 mmHg 91%
    04:00 +9°C° 0 mm 3 m/s 747 mmHg 91%
    05:00 +10°C° 0 mm 3 m/s 747 mmHg 90%
    06:00 +10°C° 0 mm 3 m/s 747 mmHg 89%
    07:00 +12°C° 0 mm 4 m/s 747 mmHg 86%
    08:00 +13°C° 0 mm 4 m/s 747 mmHg 83%
    09:00 +14°C° 0 mm 4 m/s 748 mmHg 79%
    10:00 +15°C° 0.2 mm 4 m/s 748 mmHg 77%
    11:00 +15°C° 0.2 mm 5 m/s 748 mmHg 74%
    12:00 +15°C° 0.2 mm 5 m/s 748 mmHg 72%
    13:00 +15°C° 0.2 mm 5 m/s 748 mmHg 72%
    14:00 +15°C° 0.2 mm 4 m/s 748 mmHg 72%
    15:00 +15°C° 0.2 mm 4 m/s 748 mmHg 72%
    16:00 +15°C° 0.2 mm 4 m/s 748 mmHg 75%
    17:00 +14°C° 0.2 mm 4 m/s 749 mmHg 77%
    18:00 +14°C° 0.2 mm 3 m/s 749 mmHg 80%
    19:00 +13°C° 0 mm 3 m/s 749 mmHg 81%
    20:00 +11°C° 0 mm 3 m/s 749 mmHg 82%
    21:00 +10°C° 0 mm 2 m/s 750 mmHg 83%
    22:00 +10°C° 0 mm 2 m/s 750 mmHg 85%
    23:00 +9°C° 0 mm 2 m/s 750 mmHg 87%

    21 Juin, Vendredi

    Heure Température Précipitation Vent Pression Humidité
    00:00 +8°C° 0 mm 3 m/s 750 mmHg 89%
    01:00 +8°C° 0 mm 3 m/s 750 mmHg 91%
    02:00 +8°C° 0 mm 3 m/s 750 mmHg 92%
    03:00 +8°C° 0 mm 3 m/s 751 mmHg 93%
    04:00 +7°C° 0 mm 4 m/s 751 mmHg 91%
    05:00 +8°C° 0 mm 4 m/s 751 mmHg 89%
    06:00 +9°C° 0 mm 5 m/s 751 mmHg 86%
    07:00 +10°C° 0 mm 5 m/s 752 mmHg 82%
    08:00 +12°C° 0 mm 5 m/s 752 mmHg 77%
    09:00 +14°C° 0 mm 5 m/s 752 mmHg 72%
    10:00 +14°C° 0.1 mm 5 m/s 752 mmHg 69%
    11:00 +15°C° 0.1 mm 5 m/s 752 mmHg 67%
    12:00 +16°C° 0.1 mm 5 m/s 752 mmHg 64%
    13:00 +16°C° 0.1 mm 5 m/s 752 mmHg 64%
    14:00 +16°C° 0.1 mm 5 m/s 752 mmHg 65%
    15:00 +17°C° 0.1 mm 4 m/s 753 mmHg 65%
    16:00 +17°C° 0 mm 4 m/s 753 mmHg 68%
    17:00 +15°C° 0 mm 4 m/s 753 mmHg 72%
    18:00 +16°C° 0 mm 3 m/s 753 mmHg 75%
    19:00 +13°C° 0 mm 3 m/s 753 mmHg 76%
    20:00 +13°C° 0 mm 2 m/s 754 mmHg 76%
    21:00 +10°C° 0 mm 2 m/s 754 mmHg 77%
    22:00 +9°C° 0 mm 2 m/s 754 mmHg 78%
    23:00 +9°C° 0 mm 1 m/s 754 mmHg 79%

    22 Juin, Samedi

    Heure Température Précipitation Vent Pression Humidité
    00:00 +8°C° 0 mm 1 m/s 754 mmHg 81%
    01:00 +8°C° 0 mm 1 m/s 754 mmHg 81%
    02:00 +8°C° 0 mm 1 m/s 754 mmHg 81%
    03:00 +7°C° 0 mm 0 m/s 754 mmHg 81%
    04:00 +8°C° 0 mm 0 m/s 755 mmHg 80%
    05:00 +9°C° 0 mm 0 m/s 755 mmHg 78%
    06:00 +10°C° 0 mm 0 m/s 755 mmHg 76%
    07:00 +12°C° 0 mm 0 m/s 755 mmHg 73%
    08:00 +13°C° 0 mm 0 m/s 755 mmHg 70%
    09:00 +16°C° 0 mm 1 m/s 755 mmHg 67%
    10:00 +16°C° 0 mm 1 m/s 755 mmHg 66%
    11:00 +18°C° 0 mm 1 m/s 755 mmHg 66%
    12:00 +17°C° 0 mm 2 m/s 755 mmHg 65%
    13:00 +18°C° 0.1 mm 2 m/s 755 mmHg 65%
    14:00 +18°C° 0.1 mm 2 m/s 755 mmHg 65%
    15:00 +18°C° 0.1 mm 2 m/s 755 mmHg 65%
    16:00 +18°C° 0.1 mm 2 m/s 755 mmHg 70%
    17:00 +17°C° 0.1 mm 3 m/s 754 mmHg 75%
    18:00 +17°C° 0.1 mm 3 m/s 754 mmHg 80%
    19:00 +14°C° 0 mm 3 m/s 755 mmHg 84%
    20:00 +12°C° 0 mm 3 m/s 755 mmHg 89%
    21:00 +11°C° 0 mm 3 m/s 755 mmHg 93%
    22:00 +11°C° 0 mm 3 m/s 755 mmHg 94%
    23:00 +12°C° 0 mm 2 m/s 755 mmHg 94%

    23 Juin, Dimanche

    Heure Température Précipitation Vent Pression Humidité
    00:00 +12°C° 0 mm 2 m/s 755 mmHg 95%
    01:00 +10°C° 0 mm 2 m/s 755 mmHg 95%
    02:00 +10°C° 0 mm 2 m/s 755 mmHg 94%
    03:00 +9°C° 0 mm 2 m/s 755 mmHg 94%
    04:00 +10°C° 0 mm 2 m/s 755 mmHg 93%
    05:00 +10°C° 0 mm 2 m/s 756 mmHg 91%
    06:00 +12°C° 0 mm 2 m/s 756 mmHg 90%
    07:00 +13°C° 0 mm 2 m/s 756 mmHg 85%
    08:00 +14°C° 0 mm 3 m/s 756 mmHg 81%
    09:00 +16°C° 0 mm 3 m/s 756 mmHg 77%
    10:00 +17°C° 0 mm 3 m/s 756 mmHg 75%
    11:00 +18°C° 0 mm 3 m/s 756 mmHg 73%
    12:00 +18°C° 0 mm 4 m/s 756 mmHg 72%
    13:00 +18°C° 0 mm 4 m/s 756 mmHg 72%
    14:00 +17°C° 0 mm 5 m/s 756 mmHg 72%
    15:00 +17°C° 0 mm 5 m/s 756 mmHg 72%
    16:00 +16°C° 0 mm 5 m/s 756 mmHg 74%
    17:00 +15°C° 0 mm 5 m/s 756 mmHg 75%
    18:00 +14°C° 0 mm 5 m/s 756 mmHg 77%
    19:00 +13°C° 0 mm 4 m/s 756 mmHg 83%
    20:00 +11°C° 0 mm 4 m/s 756 mmHg 88%
    21:00 +10°C° 0 mm 3 m/s 757 mmHg 94%
    22:00 +10°C° 0 mm 3 m/s 756 mmHg 95%
    23:00 +10°C° 0 mm 3 m/s 756 mmHg 96%
    Voir plus